Hourly Data Report for September 16, 2007

PETERBOROUGH AWOS
ONTARIO

44°14'00.000" N
78°22'00.000" W
191.40 m
6166420

Download Data

Hourly Data (September 2007)
Hourly Data Report for September 16, 2007
TIME
LST
Temp Definition
°C
Dew Point Definition
°C
Rel Hum Definition
%
Precip. Amount Definition
mm

Wind Dir Definition
10's deg

Wind Spd Definition
km/h
Visibility Definition
km
Stn Press Definition
kPa
Hmdx Definition


Wind Chill Definition


Weather Definition


00:00 1.3 0.8 96     0 2.9 100.10      
01:00 1.5 1.1 97     0 15.0 100.11      
02:00 2.7 2.3 97   23 4 15.0 100.14      
03:00 3.6 3.5 99   24 6 15.0 100.12      
04:00 4.0 3.4 96   25 6 15.0 100.14      
05:00 3.1 2.7 97     0 15.0 100.18      
06:00 0.7 0.4 98     0 3.9 100.22      
07:00 4.7 3.9 95   24 6 15.0 100.29      
08:00 7.3 5.5 88   24 4 15.0 100.34      
09:00 9.3 6.5 83   19 4 15.0 100.37      
10:00 10.3 6.6 78   14 4 15.0 100.39     Rain
11:00 12.9 6.6 66   15 11 15.0 100.37      
12:00 14.3 5.5 55   16 9 15.0 100.33      
13:00 15.6 4.4 47   25 13 15.0 100.26      
14:00 15.6 4.5 48   21 15 15.0 100.20      
15:00 15.0 5.5 53   19 11 15.0 100.19      
16:00 14.6 5.9 56   18 9 15.0 100.17      
17:00 15.5 6.0 53   20 17 15.0 100.17      
18:00 12.6 5.2 61   21 7 15.0 100.20      
19:00 8.2 6.1 87     0 15.0 100.23      
20:00 6.3 5.6 95     0 15.0 100.27      
21:00 4.8 4.6 99     0 15.0 100.28      
22:00 4.4 4.2 99     0 15.0 100.32      
23:00 3.6 3.5 99     0 15.0 100.35      

Notes on Data Quality.

Legend

  • E = Estimated
  • M = Missing
  • NA = Not Available*
  • [empty] = Indicates an unobserved value
Date modified: